AAL2 VTSP-ZJSY

Flight info

Callsign AAL2
Flight time N/A
Altitude 35000
Route SAVSA1B SAVSA G458 LAMUL Y8 SAPUD W32 SMU W33 UPNEP R575 PAPRA CAHEO KAGUK KAGUK1A
Aircraft A321/M-SDE3FGHIRWY/LB1

Departure

Time 2026-05-04 11:27
Airport Phuket International Airport (VTSP)

Arrival

Time N/A
Airport Sanya Phoenix International Airport (ZJSY)
Time Latitude Longitude Altitude Speed Heading
2026-05-04 11:06 8.10989 98.30684 28 ft 0 kts 174°
2026-05-04 11:19 8.11008 98.30683 28 ft 4 kts 179°
2026-05-04 11:19 8.11035 98.30684 28 ft 4 kts 193°
2026-05-04 11:20 8.11059 98.30694 28 ft 4 kts 225°
2026-05-04 11:20 8.11067 98.30707 28 ft 0 kts 264°
2026-05-04 11:22 8.11067 98.30706 28 ft 0 kts 264°
2026-05-04 11:22 8.11066 98.30698 28 ft 2 kts 264°
2026-05-04 11:23 8.11064 98.30674 28 ft 4 kts 264°
2026-05-04 11:23 8.11060 98.30636 28 ft 6 kts 264°
2026-05-04 11:24 8.11095 98.30351 27 ft 0 kts 354°
2026-05-04 11:25 8.11117 98.30348 26 ft 5 kts 354°
2026-05-04 11:26 8.11194 98.30351 27 ft 1 kts 47°
2026-05-04 11:27 8.11639 98.35007 1563 ft 169 kts 86°
2026-05-04 11:28 8.11752 98.36224 2053 ft 182 kts 86°
2026-05-04 11:28 8.11873 98.37550 2217 ft 203 kts 86°
2026-05-04 11:28 8.12011 98.39037 2362 ft 223 kts 85°
2026-05-04 11:28 8.12165 98.40669 2458 ft 245 kts 85°
2026-05-04 11:29 8.12335 98.42447 2728 ft 261 kts 85°
2026-05-04 11:29 8.12510 98.44281 3338 ft 263 kts 85°
2026-05-04 11:29 8.12685 98.46118 3989 ft 264 kts 84°
2026-05-04 11:29 8.12860 98.47963 4655 ft 264 kts 84°
2026-05-04 11:31 8.15705 98.60585 8596 ft 285 kts 34°
2026-05-04 11:33 8.30545 98.61756 11475 ft 329 kts
2026-05-04 11:33 8.32843 98.61835 11944 ft 331 kts
2026-05-04 11:33 8.35156 98.61915 12406 ft 334 kts
2026-05-04 11:34 8.37498 98.62000 12686 ft 343 kts
2026-05-04 11:34 8.39927 98.62090 12821 ft 356 kts
2026-05-04 11:34 8.42434 98.62182 13013 ft 366 kts
2026-05-04 11:34 8.44996 98.62272 13374 ft 370 kts
2026-05-04 11:35 8.47568 98.62420 13753 ft 371 kts
2026-05-04 11:35 8.50079 98.63029 14117 ft 371 kts 21°
2026-05-04 11:35 8.52399 98.64155 14483 ft 371 kts 33°
2026-05-04 11:35 8.54466 98.65716 14839 ft 372 kts 40°
2026-05-04 11:36 8.56454 98.67345 15207 ft 374 kts 40°
2026-05-04 11:36 8.58483 98.68998 15579 ft 375 kts 40°
2026-05-04 11:36 8.60526 98.70655 15935 ft 377 kts 40°
2026-05-04 11:36 8.62579 98.72317 16288 ft 380 kts 40°
2026-05-04 11:37 8.64644 98.73993 16671 ft 381 kts 40°
2026-05-04 11:37 8.66715 98.75677 17037 ft 383 kts 40°
2026-05-04 11:37 8.68799 98.77371 17396 ft 385 kts 40°
2026-05-04 11:37 8.70889 98.79073 17740 ft 387 kts 40°
2026-05-04 11:38 8.72993 98.80786 18084 ft 389 kts 40°
2026-05-04 11:38 8.75107 98.82510 18386 ft 391 kts 40°
2026-05-04 11:38 8.77231 98.84241 18679 ft 393 kts 40°
2026-05-04 11:38 8.79365 98.85979 18977 ft 395 kts 40°
2026-05-04 11:39 8.81507 98.87722 19258 ft 396 kts 40°
2026-05-04 11:39 8.83658 98.89475 19545 ft 398 kts 40°
2026-05-04 11:40 8.96706 99.00157 21152 ft 408 kts 40°
2026-05-04 11:41 8.98919 99.01969 21402 ft 410 kts 40°
2026-05-04 11:41 9.01146 99.03793 21628 ft 412 kts 40°
2026-05-04 11:41 9.03379 99.05624 21872 ft 414 kts 40°
2026-05-04 11:41 9.05617 99.07461 22120 ft 416 kts 40°
2026-05-04 11:42 9.07869 99.09306 22367 ft 417 kts 39°
2026-05-04 11:42 9.10128 99.11159 22615 ft 419 kts 40°
2026-05-04 11:42 9.12203 99.13225 22841 ft 419 kts 51°
2026-05-04 11:42 9.13876 99.15639 23078 ft 420 kts 61°
2026-05-04 11:43 9.15152 99.18306 23295 ft 422 kts 66°
2026-05-04 11:43 9.16368 99.21015 23502 ft 424 kts 65°
2026-05-04 11:43 9.17592 99.23734 23697 ft 425 kts 65°
2026-05-04 11:43 9.18822 99.26461 23899 ft 426 kts 65°
2026-05-04 11:44 9.19640 99.28275 24027 ft 427 kts 65°
2026-05-04 11:44 9.21281 99.31907 24289 ft 429 kts 65°
2026-05-04 11:44 9.22526 99.34657 24484 ft 430 kts 65°
2026-05-04 11:44 9.23771 99.37414 24677 ft 432 kts 65°
2026-05-04 11:45 9.25021 99.40182 24872 ft 433 kts 65°
2026-05-04 11:45 9.26275 99.42960 25047 ft 434 kts 65°
2026-05-04 11:45 9.27534 99.45744 25250 ft 435 kts 65°
2026-05-04 11:45 9.28370 99.47594 25367 ft 436 kts 65°
2026-05-04 11:46 9.29630 99.50386 25602 ft 436 kts 65°
2026-05-04 11:46 9.30890 99.53183 25788 ft 437 kts 65°
2026-05-04 11:46 9.32153 99.55991 25994 ft 438 kts 65°
2026-05-04 11:46 9.33419 99.58801 26172 ft 440 kts 65°
2026-05-04 11:47 9.34692 99.61623 26320 ft 441 kts 65°
2026-05-04 11:47 9.35970 99.64457 26498 ft 443 kts 65°
2026-05-04 11:47 9.37235 99.67264 26661 ft 444 kts 65°
2026-05-04 11:47 9.38536 99.70150 26864 ft 445 kts 65°
2026-05-04 11:48 9.39805 99.72972 27026 ft 447 kts 65°
2026-05-04 11:48 9.41095 99.75843 27230 ft 448 kts 65°
2026-05-04 11:48 9.42384 99.78721 27402 ft 449 kts 65°
2026-05-04 11:48 9.43680 99.81609 27589 ft 450 kts 65°
2026-05-04 11:49 9.44980 99.84502 27758 ft 452 kts 65°
2026-05-04 11:49 9.46284 99.87406 27921 ft 454 kts 65°
2026-05-04 11:49 9.47591 99.90323 28075 ft 456 kts 65°
2026-05-04 11:49 9.48903 99.93249 28270 ft 457 kts 65°
2026-05-04 11:50 9.50219 99.96186 28432 ft 458 kts 65°
2026-05-04 11:50 9.51538 99.99126 28611 ft 459 kts 65°
2026-05-04 11:50 9.52863 100.02075 28774 ft 461 kts 65°
2026-05-04 11:50 9.54194 100.05038 28946 ft 462 kts 65°
2026-05-04 11:51 9.55481 100.08019 29104 ft 463 kts 67°
2026-05-04 11:51 9.56664 100.11059 29249 ft 464 kts 69°
2026-05-04 11:51 9.57765 100.14139 29403 ft 465 kts 70°
2026-05-04 11:51 9.58814 100.17198 29534 ft 467 kts 70°
2026-05-04 11:52 9.59875 100.20309 29674 ft 468 kts 70°
2026-05-04 11:52 9.60955 100.23418 29800 ft 468 kts 70°
2026-05-04 11:52 9.62060 100.26525 29926 ft 469 kts 69°
2026-05-04 11:52 9.63185 100.29634 30041 ft 470 kts 69°
2026-05-04 11:53 9.64322 100.32734 30162 ft 470 kts 69°
2026-05-04 11:53 9.65464 100.35832 30314 ft 469 kts 69°
2026-05-04 11:53 9.66600 100.38926 30465 ft 468 kts 69°
2026-05-04 11:53 9.67728 100.42021 30617 ft 468 kts 69°
2026-05-04 11:55 9.79843 100.61023 31683 ft 462 kts 51°
2026-05-04 11:55 9.81882 100.63544 31791 ft 462 kts 51°
2026-05-04 11:56 9.83924 100.66076 31915 ft 463 kts 51°
2026-05-04 11:56 9.85961 100.68604 32045 ft 463 kts 51°
2026-05-04 11:56 9.87974 100.71099 32177 ft 463 kts 51°
2026-05-04 11:56 9.90012 100.73620 32321 ft 462 kts 51°
2026-05-04 11:57 9.92056 100.76142 32461 ft 462 kts 51°
2026-05-04 11:57 9.94094 100.78660 32610 ft 461 kts 51°
2026-05-04 11:57 9.96132 100.81178 32755 ft 461 kts 51°
2026-05-04 11:57 9.98162 100.83694 32902 ft 460 kts 51°
2026-05-04 11:58 10.00189 100.86208 33048 ft 460 kts 51°
2026-05-04 11:58 10.02213 100.88716 33183 ft 460 kts 51°
2026-05-04 11:58 10.04240 100.91228 33320 ft 460 kts 51°
2026-05-04 11:58 10.06262 100.93736 33435 ft 460 kts 51°
2026-05-04 11:59 10.08264 100.96220 33564 ft 459 kts 51°
2026-05-04 11:59 10.10312 100.98759 33702 ft 459 kts 51°
2026-05-04 11:59 10.12310 101.01234 33836 ft 459 kts 51°
2026-05-04 11:59 10.14330 101.03738 33955 ft 459 kts 51°
2026-05-04 12:00 10.16353 101.06247 34075 ft 459 kts 51°
2026-05-04 12:00 10.18371 101.08748 34192 ft 458 kts 51°
2026-05-04 12:00 10.20390 101.11249 34314 ft 458 kts 51°
2026-05-04 12:00 10.22397 101.13757 34426 ft 457 kts 52°
2026-05-04 12:01 10.24360 101.16292 34555 ft 457 kts 53°
2026-05-04 12:01 10.26294 101.18858 34667 ft 457 kts 53°
2026-05-04 12:02 10.37801 101.34239 34863 ft 457 kts 53°
2026-05-04 12:03 10.41678 101.39374 34866 ft 459 kts 53°
2026-05-04 12:03 10.45561 101.44520 34866 ft 459 kts 53°
2026-05-04 12:04 10.49427 101.49649 34871 ft 460 kts 53°
2026-05-04 12:04 10.53319 101.54809 34875 ft 460 kts 53°
2026-05-04 12:05 10.57212 101.59973 34880 ft 460 kts 53°
2026-05-04 12:05 10.61097 101.65144 34882 ft 460 kts 53°
2026-05-04 12:06 10.64983 101.70314 34886 ft 460 kts 53°
2026-05-04 12:06 10.68869 101.75479 34888 ft 460 kts 53°
2026-05-04 12:07 10.72752 101.80643 34883 ft 460 kts 53°
2026-05-04 12:07 10.76635 101.85814 34869 ft 461 kts 53°
2026-05-04 12:08 10.80531 101.91001 34869 ft 462 kts 53°
2026-05-04 12:08 10.84440 101.96196 34870 ft 462 kts 53°
2026-05-04 12:09 10.88346 102.01405 34871 ft 463 kts 53°
2026-05-04 12:09 10.92226 102.06582 34876 ft 463 kts 53°
2026-05-04 12:10 10.96130 102.11789 34877 ft 463 kts 53°
2026-05-04 12:10 11.00030 102.17001 34879 ft 463 kts 53°
2026-05-04 12:11 11.03939 102.22213 34883 ft 463 kts 53°
2026-05-04 12:11 11.07844 102.27430 34877 ft 464 kts 52°
2026-05-04 12:12 11.11743 102.32684 34862 ft 465 kts 52°
2026-05-04 12:12 11.15641 102.37954 34859 ft 466 kts 52°
2026-05-04 12:14 11.31282 102.59075 34882 ft 467 kts 52°
2026-05-04 12:15 11.35192 102.64354 34890 ft 467 kts 52°
2026-05-04 12:15 11.39101 102.69638 34892 ft 467 kts 52°
2026-05-04 12:16 11.43002 102.74930 34894 ft 467 kts 52°
2026-05-04 12:16 11.46890 102.80191 34899 ft 466 kts 52°
2026-05-04 12:17 11.50790 102.85462 34905 ft 465 kts 52°
2026-05-04 12:17 11.54669 102.90731 34904 ft 464 kts 52°
2026-05-04 12:18 11.58548 102.95992 34907 ft 464 kts 52°
2026-05-04 12:18 11.62462 103.01225 34914 ft 463 kts 50°
2026-05-04 12:19 11.66675 103.06191 34920 ft 463 kts 47°
2026-05-04 12:19 11.71046 103.11015 34919 ft 463 kts 47°
2026-05-04 12:20 11.75381 103.15873 34932 ft 463 kts 47°
2026-05-04 12:20 11.79634 103.20767 34926 ft 464 kts 48°
2026-05-04 12:21 11.83916 103.25727 34923 ft 465 kts 48°
2026-05-04 12:21 11.88208 103.30678 34933 ft 466 kts 48°
2026-05-04 12:22 11.92512 103.35632 34938 ft 466 kts 48°
2026-05-04 12:22 11.96824 103.40593 34941 ft 467 kts 48°
2026-05-04 12:23 12.01138 103.45555 34943 ft 467 kts 48°
2026-05-04 12:23 12.05418 103.50486 34948 ft 467 kts 48°
2026-05-04 12:24 12.09726 103.55451 34952 ft 466 kts 48°
2026-05-04 12:24 12.14026 103.60409 34949 ft 466 kts 48°
2026-05-04 12:25 12.18321 103.65372 34930 ft 466 kts 48°
2026-05-04 12:25 12.22611 103.70334 34930 ft 466 kts 48°
2026-05-04 12:26 12.26973 103.75248 34930 ft 466 kts 46°
2026-05-04 12:26 12.31429 103.80057 34910 ft 466 kts 46°
2026-05-04 12:27 12.35897 103.84856 34909 ft 466 kts 46°
2026-05-04 12:27 12.40336 103.89677 34913 ft 465 kts 46°
2026-05-04 12:28 12.44751 103.94516 34897 ft 466 kts 46°
2026-05-04 12:28 12.49171 103.99370 34892 ft 466 kts 46°
2026-05-04 12:29 12.53577 104.04185 34893 ft 467 kts 45°
2026-05-04 12:29 12.58024 104.09034 34890 ft 467 kts 45°
2026-05-04 12:30 12.62464 104.13896 34895 ft 467 kts 46°
2026-05-04 12:30 12.66899 104.18761 34896 ft 467 kts 46°
2026-05-04 12:31 12.71343 104.23627 34897 ft 468 kts 45°
2026-05-04 12:31 12.75785 104.28496 34896 ft 468 kts 45°
2026-05-04 12:32 12.82461 104.35811 34891 ft 469 kts 45°
2026-05-04 12:33 12.86914 104.40705 34886 ft 469 kts 45°
2026-05-04 12:33 12.91371 104.45599 34888 ft 470 kts 45°
2026-05-04 12:34 12.95801 104.50461 34891 ft 470 kts 45°
2026-05-04 12:34 13.00262 104.55365 34893 ft 470 kts 45°
2026-05-04 12:35 13.04715 104.60276 34898 ft 470 kts 45°
2026-05-04 12:35 13.09172 104.65192 34902 ft 470 kts 45°
2026-05-04 12:36 13.13640 104.70112 34894 ft 471 kts 45°
2026-05-04 12:36 13.17355 104.74202 34893 ft 472 kts 45°
2026-05-04 12:37 13.21833 104.79128 34895 ft 472 kts 45°
2026-05-04 12:37 13.26310 104.84066 34896 ft 472 kts 45°
2026-05-04 12:38 13.30755 104.88979 34898 ft 472 kts 45°
2026-05-04 12:38 13.35222 104.93920 34904 ft 472 kts 45°
2026-05-04 12:39 13.39700 104.98864 34902 ft 473 kts 45°
2026-05-04 12:39 13.44187 105.03813 34902 ft 473 kts 45°
2026-05-04 12:40 13.48664 105.08769 34903 ft 473 kts 45°
2026-05-04 12:40 13.53144 105.13741 34902 ft 474 kts 45°
2026-05-04 12:41 13.57625 105.18708 34903 ft 474 kts 45°
2026-05-04 12:41 13.62079 105.23647 34904 ft 474 kts 45°
2026-05-04 12:42 13.66569 105.28617 34907 ft 474 kts 45°
2026-05-04 12:42 13.71055 105.33582 34904 ft 474 kts 45°
2026-05-04 12:43 13.75538 105.38563 34907 ft 475 kts 45°
2026-05-04 12:43 13.80070 105.43500 34904 ft 473 kts 39°
2026-05-04 12:44 13.85081 105.47870 34903 ft 472 kts 38°
2026-05-04 12:44 13.90102 105.52234 34901 ft 472 kts 38°
2026-05-04 12:45 13.95075 105.56576 34897 ft 472 kts 38°
2026-05-04 12:45 14.00090 105.60954 34901 ft 472 kts 38°
2026-05-04 12:46 14.05103 105.65332 34901 ft 472 kts 38°
2026-05-04 12:46 14.10124 105.69710 34903 ft 473 kts 38°
2026-05-04 12:47 14.15131 105.74102 34907 ft 473 kts 38°
2026-05-04 12:47 14.20134 105.78520 34903 ft 473 kts 38°
2026-05-04 12:48 14.25125 105.82944 34907 ft 473 kts 38°
2026-05-04 12:48 14.30121 105.87372 34907 ft 473 kts 38°
2026-05-04 12:49 14.35089 105.91767 34908 ft 473 kts 38°
2026-05-04 12:49 14.40098 105.96193 34913 ft 474 kts 38°
2026-05-04 12:50 14.45104 106.00615 34906 ft 474 kts 38°
2026-05-04 12:50 14.50113 106.05044 34905 ft 474 kts 38°
2026-05-04 12:51 14.55126 106.09493 34907 ft 475 kts 38°
2026-05-04 12:51 14.60105 106.13908 34907 ft 475 kts 38°
2026-05-04 12:52 14.65114 106.18354 34913 ft 475 kts 38°
2026-05-04 12:52 14.70119 106.22803 34915 ft 475 kts 38°
2026-05-04 12:53 14.75135 106.27259 34918 ft 475 kts 38°
2026-05-04 12:53 14.80151 106.31710 34928 ft 475 kts 38°
2026-05-04 12:54 14.85159 106.36163 34932 ft 475 kts 38°
2026-05-04 12:54 14.90131 106.40590 34956 ft 474 kts 38°
2026-05-04 12:55 14.95133 106.45050 34956 ft 474 kts 38°
2026-05-04 12:55 15.00123 106.49514 34948 ft 474 kts 39°
2026-05-04 12:56 15.05117 106.53987 34963 ft 474 kts 38°
2026-05-04 12:56 15.10109 106.58458 34962 ft 474 kts 38°
2026-05-04 12:57 15.15066 106.62903 34963 ft 474 kts 38°
2026-05-04 12:57 15.20056 106.67386 34961 ft 475 kts 38°
2026-05-04 12:58 15.25053 106.71866 34962 ft 474 kts 38°
2026-05-04 12:58 15.30043 106.76339 34966 ft 474 kts 38°
2026-05-04 12:59 15.35031 106.80819 34973 ft 474 kts 39°
2026-05-04 12:59 15.39979 106.85266 34974 ft 473 kts 39°
2026-05-04 13:00 15.44959 106.89744 34981 ft 473 kts 39°
2026-05-04 13:00 15.49923 106.94213 35003 ft 473 kts 39°
2026-05-04 13:01 15.54891 106.98691 35009 ft 473 kts 39°
2026-05-04 13:01 15.59856 107.03162 35008 ft 472 kts 39°
2026-05-04 13:02 15.64823 107.07633 35031 ft 473 kts 39°
2026-05-04 13:02 15.69785 107.12108 35032 ft 473 kts 39°
2026-05-04 13:03 15.74760 107.16593 35023 ft 474 kts 39°
2026-05-04 13:03 15.79677 107.21178 35031 ft 476 kts 41°
2026-05-04 13:04 15.84371 107.25970 35040 ft 477 kts 43°
2026-05-04 13:04 15.89055 107.30850 35043 ft 477 kts 43°
2026-05-04 13:05 15.93781 107.35687 35045 ft 477 kts 42°
2026-05-04 13:05 15.98537 107.40484 35048 ft 477 kts 42°
2026-05-04 13:06 16.03305 107.45290 35031 ft 478 kts 42°
2026-05-04 13:06 16.08069 107.50121 35010 ft 479 kts 42°
2026-05-04 13:07 16.12836 107.54967 35022 ft 479 kts 42°
2026-05-04 13:07 16.17610 107.59816 35007 ft 480 kts 42°
2026-05-04 13:08 16.22380 107.64667 35001 ft 480 kts 42°
2026-05-04 13:08 16.27157 107.69522 34996 ft 480 kts 42°
2026-05-04 13:09 16.31939 107.74376 34998 ft 480 kts 42°
2026-05-04 13:09 16.36710 107.79238 34995 ft 480 kts 42°
2026-05-04 13:10 16.41477 107.84113 35010 ft 480 kts 42°
2026-05-04 13:10 16.46250 107.88978 35014 ft 480 kts 42°
2026-05-04 13:11 16.51023 107.93843 35015 ft 480 kts 42°
2026-05-04 13:11 16.55784 107.98725 35015 ft 480 kts 43°
2026-05-04 13:12 16.60492 108.03673 35017 ft 480 kts 44°
2026-05-04 13:12 16.65178 108.08638 35016 ft 480 kts 43°
2026-05-04 13:13 16.69890 108.13593 35008 ft 480 kts 43°
2026-05-04 13:13 16.74565 108.18504 35017 ft 480 kts 43°
2026-05-04 13:14 16.79233 108.23429 34703 ft 471 kts 43°
2026-05-04 13:14 16.81527 108.25851 34476 ft 468 kts 43°
2026-05-04 13:14 16.83806 108.28256 34252 ft 466 kts 44°
2026-05-04 13:14 16.86082 108.30659 34027 ft 464 kts 44°
2026-05-04 13:15 16.88347 108.33050 33776 ft 462 kts 44°
2026-05-04 13:15 16.90604 108.35431 33504 ft 459 kts 44°
2026-05-04 13:15 16.92844 108.37794 32988 ft 456 kts 44°
2026-05-04 13:15 16.95068 108.40137 32490 ft 453 kts 44°
2026-05-04 13:16 16.97284 108.42471 31977 ft 451 kts 44°
2026-05-04 13:16 16.99482 108.44790 31479 ft 448 kts 44°
2026-05-04 13:16 17.01667 108.47097 31005 ft 445 kts 44°
2026-05-04 13:16 17.03843 108.49399 30502 ft 444 kts 44°
2026-05-04 13:17 17.06010 108.51689 30006 ft 441 kts 44°
2026-05-04 13:17 17.08163 108.53963 29490 ft 438 kts 44°
2026-05-04 13:17 17.10292 108.56217 29038 ft 433 kts 44°
2026-05-04 13:17 17.12398 108.58449 28567 ft 429 kts 44°
2026-05-04 13:18 17.14455 108.60630 28138 ft 425 kts 44°
2026-05-04 13:18 17.16519 108.62822 27703 ft 421 kts 44°
2026-05-04 13:18 17.18566 108.64993 27277 ft 417 kts 44°
2026-05-04 13:18 17.20596 108.67145 26841 ft 414 kts 44°
2026-05-04 13:19 17.22614 108.69280 26420 ft 410 kts 44°
2026-05-04 13:19 17.23966 108.70711 26136 ft 408 kts 44°
2026-05-04 13:19 17.26595 108.73500 25567 ft 404 kts 44°
2026-05-04 13:19 17.28563 108.75592 25129 ft 402 kts 44°
2026-05-04 13:20 17.30525 108.77675 24698 ft 400 kts 44°
2026-05-04 13:20 17.32475 108.79746 24252 ft 398 kts 44°
2026-05-04 13:20 17.34416 108.81808 23814 ft 397 kts 44°
2026-05-04 13:20 17.36350 108.83864 23314 ft 395 kts 44°
2026-05-04 13:21 17.38272 108.85907 22840 ft 392 kts 44°
2026-05-04 13:21 17.40176 108.87929 22399 ft 388 kts 44°
2026-05-04 13:21 17.42039 108.89908 21939 ft 385 kts 44°
2026-05-04 13:21 17.43910 108.91899 21505 ft 382 kts 44°
2026-05-04 13:22 17.45766 108.93876 21062 ft 379 kts 44°
2026-05-04 13:22 17.47609 108.95842 20620 ft 377 kts 44°
2026-05-04 13:22 17.49439 108.97794 20175 ft 374 kts 44°
2026-05-04 13:22 17.51258 108.99735 19744 ft 372 kts 44°
2026-05-04 13:23 17.53068 109.01666 19288 ft 370 kts 44°
2026-05-04 13:23 17.54867 109.03584 18856 ft 369 kts 44°
2026-05-04 13:23 17.56661 109.05495 18425 ft 367 kts 44°
2026-05-04 13:23 17.58450 109.07399 17950 ft 365 kts 44°
2026-05-04 13:24 17.60224 109.09287 17521 ft 362 kts 44°
2026-05-04 13:24 17.61979 109.11153 17080 ft 358 kts 44°
2026-05-04 13:24 17.63717 109.13005 16656 ft 354 kts 44°
2026-05-04 13:25 17.67672 109.15845 15848 ft 340 kts 17°
2026-05-04 13:25 17.69941 109.16424 15463 ft 333 kts
2026-05-04 13:25 17.72230 109.16496 15085 ft 327 kts 357°
2026-05-04 13:25 17.74495 109.16492 14703 ft 324 kts 358°
2026-05-04 13:26 17.76738 109.16489 14323 ft 321 kts 358°
2026-05-04 13:26 17.78960 109.16488 13956 ft 318 kts 358°
2026-05-04 13:26 17.81168 109.16487 13559 ft 315 kts 358°
2026-05-04 13:26 17.83352 109.16484 13182 ft 312 kts 358°
2026-05-04 13:27 17.85479 109.16481 12818 ft 308 kts 358°
2026-05-04 13:27 17.86921 109.16479 12579 ft 306 kts 358°
2026-05-04 13:27 17.89036 109.16476 12218 ft 302 kts 358°
2026-05-04 13:27 17.91776 109.16202 11747 ft 296 kts 344°
2026-05-04 13:28 17.93715 109.15517 11399 ft 293 kts 338°
2026-05-04 13:28 17.95613 109.14772 11048 ft 291 kts 339°
2026-05-04 13:28 17.96893 109.14272 10817 ft 289 kts 339°
2026-05-04 13:28 17.98774 109.13542 10474 ft 288 kts 339°
2026-05-04 13:29 18.00649 109.12820 10127 ft 286 kts 340°
2026-05-04 13:29 18.02514 109.12102 9778 ft 285 kts 340°
2026-05-04 13:29 18.04367 109.11388 9423 ft 283 kts 340°
2026-05-04 13:29 18.06210 109.10677 9088 ft 280 kts 340°
2026-05-04 13:30 18.08021 109.09977 8771 ft 277 kts 340°
2026-05-04 13:30 18.09806 109.09283 8426 ft 270 kts 340°
2026-05-04 13:30 18.11526 109.08614 8133 ft 264 kts 341°
2026-05-04 13:30 18.13236 109.07950 7793 ft 260 kts 340°
2026-05-04 13:31 18.14917 109.07298 7471 ft 256 kts 341°
2026-05-04 13:31 18.16633 109.06857 7156 ft 253 kts 353°
2026-05-04 13:31 18.18379 109.06614 6833 ft 252 kts 353°
2026-05-04 13:31 18.20109 109.06368 6527 ft 250 kts 353°
2026-05-04 13:32 18.21827 109.06121 6448 ft 248 kts 353°